Location: 433rd Scouts Home(Lloyd Manor Park, Etobicoke )
(43.6722°N, 79.5542°W)
Time: 18:20:17
(UTC-04:00)

N. Korean satellite - Pass Details

Date: 04 October 2021
Orbit: 450 x 495 km, 97.3° (Epoch: 21 October)

Event Time Altitude Azimuth Distance (km) Brightness Sun altitude
Rises 06:16:42 0° 18° (NNE) 2,560 10.6 -12.2°
Reaches altitude 10° 06:18:50 10° 24° (NNE) 1,681 9.7 -11.8°
Maximum altitude 06:22:20 46° 99° (E) 664 7.8 -11.2°
Drops below altitude 10° 06:25:50 10° 174° (S) 1,683 9.3 -10.5°
Sets 06:27:58 0° 180° (S) 2,564 10.2 -10.2°
